AO-07 1 07530U 74089B 17201.44676830 -.00000039 00000-0 33522-4 0 9994 2 07530 101.6328 169.4796 0011573 258.0012 216.3327 12.53627827952794 UO-11 1 14781U 84021B 17201.56856536 .00000111 00000-0 19946-4 0 9997 2 14781 097.6946 246.0495 0010059 090.8616 269.3751 14.82910700774293 LO-19 1 20442U 90005G 17201.38334093 -.00000023 00000-0 78101-5 0 9998 2 20442 098.5764 137.5624 0012766 053.1814 307.0540 14.32864549436317 HUBBLE 1 20580U 90037B 17201.29840479 .00000482 00000-0 18698-4 0 9998 2 20580 028.4691 148.7226 0002847 165.3111 331.2148 15.08800816295203 MET-2/21 1 22782U 93055A 17201.56778500 .00000035 00000-0 18095-4 0 9997 2 22782 082.5495 357.0910 0021875 340.6339 063.9657 13.83801126206043 AO-27 1 22825U 93061C 17201.49825603 -.00000013 00000-0 12622-4 0 9998 2 22825 098.8147 167.4942 0007477 229.6953 130.3576 14.30000853241895 IO-26 1 22826U 93061D 17201.45170717 -.00000007 00000-0 15052-4 0 9997 2 22826 098.8090 167.5251 0008108 219.4718 140.5873 14.30329935242085 FO-29 1 24278U 96046B 17201.58644607 -.00000025 00000-0 13429-4 0 9990 2 24278 098.5589 080.3955 0349371 250.8176 105.4850 13.53076944033141 NOAA-15 1 25338U 98030A 17201.54842284 .00000064 00000-0 45571-4 0 9995 2 25338 098.7813 212.5250 0011735 108.2149 252.0308 14.25806873997490 GO-32 1 25397U 98043D 17201.43879076 -.00000028 00000-0 64822-5 0 9993 2 25397 098.6112 143.0775 0000122 233.2382 126.8786 14.23625094988302 ISS 1 25544U 98067A 17201.43406506 .00002449 00000-0 44162-4 0 9999 2 25544 051.6413 232.5972 0006134 054.2289 086.9127 15.54191876066929 NO-44 1 26931U 01043C 17201.52858167 -.00000023 00000-0 23123-4 0 9993 2 26931 067.0518 005.1698 0007418 260.7063 099.3199 14.30466950825040 SO-50 1 27607U 02058C 17201.55657439 .00000021 00000-0 23507-4 0 9996 2 27607 064.5558 023.5903 0029932 079.2849 281.1621 14.75341054783905 CO-55 1 27844U 03031E 17201.49666774 .00000059 00000-0 46412-4 0 9997 2 27844 098.6892 210.0182 0008542 248.9649 111.0616 14.22047949729011 CO-57 1 27848U 03031J 17201.01281215 .00000048 00000-0 41897-4 0 9992 2 27848 098.6984 209.8142 0008427 261.2631 098.7592 14.21661430728862 RS-22 1 27939U 03042A 17201.60707383 .00000127 00000-0 31291-4 0 9994 2 27939 097.9436 345.2780 0014282 117.7373 303.0073 14.66579642738076 NOAA-18 1 28654U 05018A 17201.49260151 .00000022 00000-0 37117-4 0 9995 2 28654 099.1809 224.5183 0013933 342.9142 017.1558 14.12342659626965 CO-58 1 28895U 05043F 17201.40363638 .00000148 00000-0 37232-4 0 9992 2 28895 097.8682 002.1698 0017764 042.5205 317.7370 14.63412041625112 Falconsat-3 1 30776U 07006E 17201.45703006 .00001991 00000-0 63721-4 0 9995 2 30776 035.4349 215.5313 0003813 264.3573 095.6717 15.32420455573368 CO-65 1 32785U 08021C 17201.53171817 .00000279 00000-0 36099-4 0 9999 2 32785 097.5650 224.2796 0014545 061.6361 298.6321 14.87909207499788 AAUSAT2 1 32788U 08021F 17201.52333770 .00000679 00000-0 68878-4 0 9993 2 32788 097.5567 236.2489 0012600 026.7351 333.4516 14.93910400500557 DO-64 1 32789U 08021G 17201.46953869 .00000979 00000-0 73228-4 0 9992 2 32789 097.5568 258.9975 0012455 356.7606 003.3538 15.04966516501771 CO-66 1 32791U 08021J 17201.54791943 .00000463 00000-0 53041-4 0 9996 2 32791 097.5617 228.7628 0014597 047.3817 312.8630 14.90250985500034 RS-30 1 32953U 08025A 17201.52349452 .00000038 00000-0 19933-3 0 9991 2 32953 082.5004 218.9234 0018312 208.9639 151.0427 12.43078073415560 PRISM 1 33493U 09002B 17201.47960981 .00000697 00000-0 68233-4 0 9996 2 33493 098.1645 085.3139 0014809 337.8359 022.2226 14.95712058460756 NOAA-19 1 33591U 09005A 17201.56896952 .00000072 00000-0 63954-4 0 9996 2 33591 099.0950 168.8731 0013978 174.0340 186.1000 14.12195846435106 TISAT-1 1 36799U 10035E 17201.30956132 .00000445 00000-0 51702-4 0 9995 2 36799 098.0655 324.7137 0011722 212.6948 147.3545 14.90423498380713 JUGNU 1 37839U 11058B 17201.50067031 .00000300 00000-0 17875-4 0 9993 2 37839 019.9604 248.4874 0018897 190.1213 309.3841 14.12587305298304 SRMSAT 1 37841U 11058D 17201.61096536 .00000311 00000-0 25756-4 0 9999 2 37841 019.9721 290.1916 0011965 087.8612 050.9138 14.10578821297917 AO-71 1 37854U 11061E 17201.51147676 .00001857 00000-0 10645-3 0 9994 2 37854 101.6981 092.0864 0167408 336.4145 022.9452 15.04194626311496 HRBE 1 37855U 11061F 17201.41130649 .00001711 00000-0 97053-4 0 9994 2 37855 101.7120 089.7192 0180412 343.5230 016.0164 15.03160405311316 ALMASAT-1 1 38078U 12006B 17201.59236716 .00008449 37195-5 99609-4 0 9997 2 38078 069.4398 042.3667 0309940 241.8044 115.1484 15.22853149289871 HORYU-2 1 38340U 12025D 17201.45532239 .00000220 00000-0 40592-4 0 9990 2 38340 098.3766 206.5492 0011582 179.5498 180.5722 14.75357279267782 RS-40 1 38735U 12041C 17201.54421569 -.00000004 00000-0 -10004-3 0 9995 2 38735 082.4780 303.3853 0015759 317.8461 042.1406 12.42574771225814 BEESAT-3 1 39134U 13015E 17201.55624240 .00001071 00000-0 61671-4 0 9993 2 39134 064.8662 118.7476 0037364 259.9210 099.7700 15.17886163234163 BEESAT-2 1 39136U 13015G 17201.17912504 .00001393 00000-0 83417-4 0 9995 2 39136 064.8700 131.1142 0033126 278.9702 080.7674 15.15156749233882 ZACUBE-1 1 39417U 13066B 17201.54298562 .00000255 00000-0 38649-4 0 9998 2 39417 097.6270 242.1650 0059934 159.5046 200.8592 14.80726726197711 TRITON-1 1 39427U 13066M 17201.46480178 .00000203 00000-0 40781-4 0 9999 2 39427 097.6373 214.5917 0112936 241.8167 117.1596 14.67475090195730 GOMX-1 1 39430U 13066Q 17201.43647992 .00000199 00000-0 45675-4 0 9990 2 39430 097.6658 197.9396 0150526 298.3665 060.2428 14.58885455194597 LO-74 1 39440U 13066AA 17201.54295207 .00000226 00000-0 38760-4 0 9999 2 39440 097.6269 231.0804 0080508 191.0949 168.8489 14.75467096195810 AO-73 1 39444U 13066AE 17201.57367208 .00000341 00000-0 48690-4 0 9998 2 39444 097.6287 243.2907 0059210 156.0551 204.3437 14.81463675195960 SPROUT 1 39770U 14029E 17201.48934668 .00000863 00000-0 10422-3 0 9990 2 39770 097.8742 300.5362 0008340 210.3867 149.6868 14.86279686171082 DUCHIFAT-1 1 40021U 14033M 17201.40828743 .00000360 00000-0 43262-4 0 9995 2 40021 097.9169 114.6207 0012705 185.3818 174.7265 14.89917208167544 NANOSATCBR1 1 40024U 14033Q 17201.55981517 .00000399 00000-0 48128-4 0 9991 2 40024 097.9127 113.6076 0011971 185.8681 174.2397 14.89239294166992 EO-79 1 40025U 14033R 17201.55719468 .00000306 00000-0 39059-4 0 9997 2 40025 097.9107 112.5972 0012135 189.1499 170.9498 14.88439258166942 DTUSAT-2 1 40030U 14033W 17201.30189331 .00000294 00000-0 38003-4 0 9990 2 40030 097.9072 111.4218 0011701 184.0882 176.0240 14.88061481167377 EO-80 1 40032U 14033Y 17201.27831629 .00000286 00000-0 37240-4 0 9995 2 40032 097.9079 111.4042 0011651 184.4943 175.6170 14.87996444166840 ANTELSAT 1 40034U 14033AA 17201.48556214 .00000209 00000-0 38927-4 0 9992 2 40034 097.8551 084.3795 0058772 184.4480 175.6214 14.73713129165299 VELOX-1 1 40057U 14034E 17201.55810484 .00000365 00000-0 59214-4 0 9993 2 40057 098.1912 302.2815 0009906 316.5176 043.5254 14.77144346164681 DAURIA DX 1 1 40071U 14037C 17201.50680089 .00000148 00000-0 26577-4 0 9998 2 40071 098.3410 313.9030 0007546 312.5698 047.4876 14.81027675163900 UKUBE-1 1 40074U 14037F 17201.47751351 .00000365 00000-0 51534-4 0 9990 2 40074 098.3507 317.8968 0003660 317.9364 042.1567 14.83521032164116 HODOYOSHI-1 1 40299U 14070B 17201.45871897 .00001051 00000-0 48577-4 0 9998 2 40299 097.4027 283.6939 0012952 342.9562 145.5817 15.22304772150005 CHUBUSAT-1 1 40300U 14070C 17201.58189339 .00001160 00000-0 55318-4 0 9990 2 40300 097.3946 280.8645 0020294 349.2950 118.4114 15.20910669149866 QSAT-EOS 1 40301U 14070D 17201.57295975 .00002519 00000-0 10814-3 0 9994 2 40301 097.3883 280.9995 0027405 343.4397 127.0303 15.23304465149914 FIREBIRD FU3 1 40377U 15003B 17201.48641504 .00001943 00000-0 86482-4 0 9992 2 40377 099.1225 032.0887 0134873 251.9248 106.7249 15.15464469136044 FIREBIRD FU4 1 40378U 15003C 17201.47817128 .00002044 00000-0 90594-4 0 9991 2 40378 099.1227 032.1185 0135063 251.8570 106.7911 15.15485856136047 GRIFEX 1 40379U 15003D 17201.45050689 .00001486 00000-0 71071-4 0 9999 2 40379 099.1252 029.7243 0140936 260.0132 098.5165 15.13020389135901 NO-84 1 40654U 15025D 17200.24480745 .00014105 00000-0 25975-3 0 00281 2 40654 054.9944 093.3187 0178503 347.6128 012.0561 15.33925490004631 NO-83 1 40655U 15025E 17200.26293912 .00026642 00000-0 39063-3 0 00318 2 40655 054.9825 066.6745 0146431 003.1000 357.1056 15.43927340004630 DEORBITSAIL 1 40719U 15032E 17201.54141562 .00000437 00000-0 70690-4 0 9991 2 40719 097.9769 094.8765 0017697 039.6429 320.6070 14.76085569109247 NUDT-PHONESAT 1 40900U 15049B 17201.56060707 .00002254 00000-0 10903-3 0 9993 2 40900 097.4424 209.0104 0015826 107.3189 252.9778 15.19525834101524 XW-2A 1 40903U 15049E 17201.54582281 .00002085 00000-0 56251-4 0 9999 2 40903 097.4195 227.6590 0016021 140.5828 219.6587 15.38862986102773 XW-2C 1 40906U 15049H 17201.53916456 .00000857 00000-0 49858-4 0 9996 2 40906 097.4549 206.3631 0016979 098.4030 261.9128 15.14578746101285 XW-2D 1 40907U 15049J 17201.52026595 .00000916 00000-0 52871-4 0 9997 2 40907 097.4518 206.0989 0016354 096.7479 263.5615 15.14685473101285 LILACSAT-2 1 40908U 15049K 17201.55092975 .00000515 00000-0 32614-4 0 9994 2 40908 097.4621 205.8735 0017894 095.3278 264.9995 15.13144530101211 XW-2F 1 40910U 15049M 17201.50301105 .00001367 00000-0 75256-4 0 9995 2 40910 097.4538 206.8186 0017211 094.5782 265.7417 15.15586372101322 XW-2B 1 40911U 15049N 17201.52719554 .00000890 00000-0 51574-4 0 9996 2 40911 097.4561 206.4986 0016251 097.0806 263.2275 15.14646638101181 DCBB 1 40912U 15049P 17201.46203971 .00001952 00000-0 99877-4 0 9999 2 40912 097.4522 208.7135 0017525 086.8527 072.3961 15.17695811101339 TW-1C 1 40926U 15051B 17201.53630160 .00011425 00000-0 25909-3 0 9999 2 40926 097.2280 240.8426 0013201 052.5983 051.4418 15.43141194102061 TW-1A 1 40928U 15051D 17201.37889468 .00005434 00000-0 15523-3 0 9994 2 40928 097.2251 236.5970 0014462 079.8925 040.6157 15.36316790101792 IO-86 1 40931U 15052B 17201.00466633 .00000693 00000-0 74128-5 0 9994 2 40931 005.9997 358.7220 0014212 346.3853 013.6002 14.76534242097823 GomX-3 1 40949U 98067HA 16292.18357804 .08527750 12374-4 77882-3 0 9992 2 40949 51.6055 106.7696 0006699 286.1344 73.8944 16.38002265 59645 LQSat 1 40958U 15057A 17201.53418438 .00000061 00000-0 17363-4 0 9992 2 40958 097.9764 276.2685 0017410 323.4820 036.5201 14.72973501096035 AO-85 1 40967U 15058D 17201.24635054 .00000870 00000-0 11930-3 0 00268 2 40967 064.7756 118.6013 0172867 066.0875 295.8258 14.75453525004673 ATHENOXAT-1 1 41168U 15077C 17201.32036760 .00002608 00000-0 11023-3 0 9994 2 41168 014.9884 287.3796 0011820 115.0225 290.3414 15.11658045088067 ChubuSat-2 1 41338U 16012B 17201.49700095 .00000386 00000-0 23671-4 0 9994 2 41338 031.0028 260.7074 0013973 028.9473 331.1935 14.99760091077990 ChubuSat-3 1 41339U 16012C 17201.55376454 .00000410 00000-0 25421-4 0 9993 2 41339 031.0113 259.4384 0013605 035.5409 324.6145 14.99964319077988 Horyu-4 1 41340U 16012D 17201.51283770 .00000557 00000-0 36247-4 0 9999 2 41340 031.0046 256.9635 0014265 044.5042 315.6737 15.00624676078027 OUFTI-1 1 41458U 16025C 17201.52747818 .00003924 00000-0 21156-3 0 9995 2 41458 098.1811 241.0112 0174619 177.9893 182.2075 15.03262484067592 [email protected] 1 41459U 16025D 17201.55185700 .00001517 00000-0 85172-4 0 9990 2 41459 098.1842 240.9916 0174731 177.9418 182.2568 15.03090737067581 AAUSAT4 1 41460U 16025E 17201.52946218 .00004420 00000-0 23852-3 0 9990 2 41460 098.1756 241.0822 0167659 176.4184 183.8312 15.04016805067602 MinXSS 1 41474U 98067HU 17125.52237589 .05724416 12300-4 86147-3 0 9995 2 41474 051.6449 208.6967 0008167 329.0747 030.9230 16.33400422055623 CADRE 1 41475U 98067HV 17003.74787607 .12518598 12537-4 55989-3 0 9998 2 41475 51.6110 110.0165 0004040 312.3134 47.7551 16.43344525 36494 NODES 1 1 41477U 98067HX 17201.37470820 .00074962 00000-0 28299-3 0 9996 2 41477 051.6239 190.0941 0001748 037.8795 322.2332 15.87049035067332 NODES 2 1 41478U 98067HY 17201.36727028 .00067881 00000-0 26690-3 0 9996 2 41478 051.6275 190.8398 0001835 039.5362 320.5775 15.86253270067321 LO-87 1 41557U 16033B 17201.49764626 .00001599 00000-0 62836-4 0 9993 2 41557 097.4624 281.0151 0012722 247.3828 112.6065 15.27134964063510 NuSat2 1 41558U 16033C 17201.33716385 .00001445 00000-0 57323-4 0 9991 2 41558 097.4652 280.9130 0012099 246.4384 113.5584 15.26970040063485 Lapan A3 1 41603U 16040E 17201.44058870 .00000416 00000-0 22915-4 0 9996 2 41603 097.4587 263.0241 0012697 324.8601 158.9046 15.19369459059709 Swayam 1 41607U 16040J 17201.42260094 .00001484 00000-0 70197-4 0 9992 2 41607 097.4585 263.3719 0013224 326.0756 033.9632 15.20886619059657 Pratham 1 41783U 16059A 17201.33534111 .00000060 00000-0 21002-4 0 9991 2 41783 098.1647 262.3625 0034758 058.3448 302.1136 14.62845100043447 AlSat 1N 1 41789U 16059G 17201.43313662 .00000093 00000-0 26856-4 0 9992 2 41789 098.1656 263.0253 0029495 052.4725 307.9154 14.64058281043477 ScatSat 1 41790U 16059H 17201.59093932 .00000013 00000-0 14093-4 0 9998 2 41790 098.0624 250.2222 0012172 049.3237 310.9014 14.50113622043109 TY-1 1 41844U 16066D 17201.61328041 .00001748 00000-0 79097-4 0 9992 2 41844 097.4054 208.2631 0017535 117.8102 351.0316 15.22112414038424 CAS-2T 1 41845U 16066E 17201.52240438 .00000162 00000-0 34547-4 0 9996 2 41845 098.7766 217.9525 0367413 149.1709 213.1665 14.37765468036287 Pegasus-1 1 41846U 16066F 17201.52379156 .00000427 00000-0 74918-4 0 9997 2 41846 098.7795 217.7172 0370155 150.5635 211.6969 14.37040657036261 STARS-C 1 41895U 98067KR 17201.53772113 .00018296 00000-0 20236-3 0 9999 2 41895 051.6364 225.3365 0005314 066.1043 294.0507 15.63069918033206 Tancredo 1 1 41931U 98067KT 17201.54009046 .00044599 00000-0 35619-3 0 9995 2 41931 051.6342 220.8162 0007939 033.5879 326.5621 15.70618851028833 TO-89 1 41932U 98067KU 17201.33558026 .00008950 00000-0 11483-3 0 9994 2 41932 051.6394 228.5127 0006305 034.2451 325.8948 15.59965848028716 AOBA-V3LOX3 1 41935U 98067KX 17201.57474865 .00009497 00000-0 11966-3 0 9994 2 41935 051.6389 227.1054 0005811 037.8647 322.2754 15.60364790028856 OSNSAT 1 41939U 98067KZ 17201.48008761 .00023130 00000-0 23345-3 0 9990 2 41939 051.6361 224.1935 0007603 035.3627 324.7871 15.65216070028148 EO-88 1 42017U 17008BX 17201.54779699 .00001666 00000-0 73682-4 0 9996 2 42017 097.4932 262.9377 0008334 102.6440 257.5729 15.23080593023560 SOMP2 1 42700U 98067LH 17201.53285189 .00008275 00000-0 12134-3 0 9991 2 42700 051.6387 231.3103 0007177 081.3552 278.8252 15.56469846010137 HAVELSAT 1 42701U 98067LJ 17201.60004390 .00007877 00000-0 11646-3 0 9997 2 42701 051.6390 231.0104 0007100 082.7716 277.4083 15.56324525010134 Columbia 1 42702U 98067LK 17201.37958924 .00018094 00000-0 24499-3 0 9996 2 42702 051.6383 231.7872 0007661 070.5226 289.6593 15.57739922010031 PHOENIX 1 42706U 98067LP 17201.59871742 .00008152 00000-0 11995-3 0 9997 2 42706 051.6390 231.0035 0002612 054.7647 305.3589 15.56409532010052 X-CubeSat 1 42707U 98067LQ 17201.59958327 .00007942 00000-0 11715-3 0 9999 2 42707 051.6387 231.0075 0002668 053.5785 306.5452 15.56383076010049 qbee 1 42708U 98067LR 17201.47261359 .00008188 00000-0 12077-3 0 9994 2 42708 051.6389 231.6596 0002718 054.0507 306.0736 15.56337556009983 ZA-AeroSat 1 42713U 98067LU 17201.54670708 .00007127 00000-0 10734-3 0 9990 2 42713 051.6387 231.4039 0003309 027.7996 332.3172 15.55996696009704 LINK 1 42714U 98067LV 17201.54487229 .00010828 00000-0 15818-3 0 9995 2 42714 051.6384 231.3907 0003765 029.5544 330.5660 15.56207786009810 UPSat 1 42716U 98067LX 17201.53618625 .00009732 00000-0 14146-3 0 9997 2 42716 051.6388 231.3336 0005449 080.4668 279.6939 15.56480276009837 SpaceCube 1 42717U 98067LY 17201.54187761 .00008222 00000-0 12175-3 0 9994 2 42717 051.6387 231.3716 0005420 081.9868 278.1738 15.56219259009074 Hoopoe 1 42718U 98067LZ 17201.53948643 .00009130 00000-0 13377-3 0 9992 2 42718 051.6389 231.3562 0005464 080.0508 280.1100 15.56350714009073 Challenger 1 42721U 98067MA 17201.54801798 .00012790 00000-0 18404-3 0 9998 2 42721 051.6383 231.4102 0008919 064.8176 295.3739 15.56402811008779 NJUST-1 1 42722U 98067MB 17201.49597128 .00007471 00000-0 11318-3 0 9999 2 42722 051.6388 231.8132 0008544 068.3303 291.8597 15.55734028008766 UNSW-EC0 1 42723U 98067MC 17201.49133622 .00009766 00000-0 14424-3 0 9995 2 42723 051.6390 231.7829 0008608 065.9141 294.2750 15.56019655008745 DUTHsat 1 42724U 98067MD 17201.55220890 .00011859 00000-0 17211-3 0 9990 2 42724 051.6386 231.4391 0007842 066.4907 293.6908 15.56262444008695 LO-90 1 42725U 98067ME 17201.49818335 .00008654 00000-0 13014-3 0 9997 2 42725 051.6390 231.8286 0007553 069.8532 290.3272 15.55704224008681 nSIGHT1 1 42726U 98067MF 17201.44056541 .00004026 00000-0 65305-4 0 9996 2 42726 051.6393 232.1941 0007418 072.5698 287.6104 15.55287044008668 QBITO 1 42728U 98067MH 17201.49243185 .00009173 00000-0 13630-3 0 9996 2 42728 051.6393 231.7918 0004747 071.5466 288.6041 15.55959593008478 Aalto-2 1 42729U 98067MJ 17201.49229021 .00009103 00000-0 13533-3 0 9995 2 42729 051.6389 231.7901 0004726 071.8127 288.3378 15.55957633008484 SUSat 1 42730U 98067MK 17201.30079189 .00007843 00000-0 11782-3 0 9998 2 42730 051.6388 232.7604 0004802 070.4281 289.7229 15.55900162008448 i-INSPIRE II 1 42731U 98067ML 17201.36191481 .00009042 00000-0 13396-3 0 9991 2 42731 051.6383 232.4148 0008713 023.3456 336.7929 15.56043285008502 PolyITAN-2-SAU 1 42732U 98067MM 17201.49123655 .00009263 00000-0 13734-3 0 9995 2 42732 051.6382 231.7786 0008628 023.5396 336.5989 15.55985924008522 SNUSAT-1 1 42733U 98067MN 17201.30144143 .00008508 00000-0 12727-3 0 9993 2 42733 051.6383 232.7612 0008454 024.2543 335.8845 15.55869551008498 ExAlta-1 1 42734U 98067MP 17201.49041756 .00009986 00000-0 14699-3 0 9991 2 42734 051.6384 231.7741 0010379 044.8208 315.3621 15.56065471008470 Aoxiang-1 1 42735U 98067MQ 17201.30243176 .00007371 00000-0 11159-3 0 9996 2 42735 051.6389 232.7702 0009245 064.4353 295.7593 15.55773887009862 BeEagleSat 1 42736U 98067MR 17201.49531573 .00007924 00000-0 11926-3 0 9994 2 42736 051.6387 231.8084 0009194 064.0855 296.1083 15.55811950008581 Atlantis 1 42737U 98067MS 17201.54033487 .00016171 00000-0 22625-3 0 9994 2 42737 051.6382 231.3582 0009695 058.2843 301.9092 15.56931517008480 CAS-4B 1 42759U 17034B 17201.60356118 .00000503 00000-0 44941-4 0 9997 2 42759 043.0193 103.1319 0007701 206.3572 224.4245 15.08922759005351 CAS-4A 1 42761U 17034D 17201.60177028 .00000543 00000-0 47349-4 0 9990 2 42761 043.0192 103.1190 0008051 206.7756 223.6489 15.08996650005348 Object A 1 42765U 17036A 17201.24990189 .00001643 00000-0 77737-4 0 9993 2 42765 097.4479 260.7012 0012935 152.2453 207.9475 15.20719100004246 Object B 1 42766U 17036B 17201.53550612 .00001364 00000-0 67340-4 0 9998 2 42766 097.4481 260.9328 0017504 138.9997 221.2557 15.19467597004151 Object C 1 42767U 17036C 17201.22991922 .00001166 00000-0 58519-4 0 9996 2 42767 097.4475 260.5739 0009816 140.2192 219.9832 15.19242838004101 LituanicaSAT 2 1 42768U 17036D 17201.53375112 .00002273 00000-0 10961-3 0 9996 2 42768 097.4480 260.9333 0017610 142.2923 217.9550 15.19593852004163 Object E 1 42769U 17036E 17201.53275069 .00000827 00000-0 41923-4 0 9993 2 42769 097.4479 260.9360 0016927 140.3929 219.8546 15.19607738004083 InflateSail 1 42770U 17036F 17201.47580815 .00136312 00000-0 49636-2 0 9992 2 42770 097.4501 261.0088 0016367 183.1921 176.9216 15.27512677004099 Object G 1 42771U 17036G 17201.53067286 .00002064 00000-0 99416-4 0 9991 2 42771 097.4482 260.9384 0016668 141.2920 218.9512 15.19761839004108 Object H 1 42772U 17036H 17201.52965568 .00002029 00000-0 97617-4 0 9993 2 42772 097.4481 260.9393 0016398 140.7485 219.4942 15.19816335004103 Object J 1 42773U 17036J 17201.52878157 .00002221 00000-0 10644-3 0 9999 2 42773 097.4481 260.9407 0016189 140.7854 219.4557 15.19866349004100 Object K 1 42774U 17036K 17201.52830869 .00002006 00000-0 96369-4 0 9998 2 42774 097.4481 260.9425 0016018 140.7355 219.5045 15.19884553004096 Aalto 1 1 42775U 17036L 17201.52645968 .00001110 00000-0 54655-4 0 9990 2 42775 097.4480 260.9446 0015593 139.5520 220.6878 15.19965070004109 URSA MAIOR 1 42776U 17036M 17201.59163066 .00001166 00000-0 57196-4 0 9996 2 42776 097.4482 261.0114 0015474 139.6621 220.5765 15.20002529004115 Object N 1 42777U 17036N 17201.52129241 .00001855 00000-0 88421-4 0 9997 2 42777 097.4493 260.9559 0014564 143.7395 216.4830 15.20277006004090 Max Valier Sat 1 42778U 17036P 17201.51907675 .00001351 00000-0 65098-4 0 9998 2 42778 097.4496 260.9617 0013972 144.7630 215.4532 15.20380418004094 Object Q 1 42779U 17036Q 17201.58364376 .00002077 00000-0 98101-4 0 9998 2 42779 097.4485 261.0221 0013983 149.5971 210.6078 15.20473336004093 Object R 1 42780U 17036R 17201.51730670 .00001846 00000-0 87460-4 0 9996 2 42780 097.4482 260.9565 0013833 149.6033 210.6007 15.20495552004091 Object S 1 42781U 17036S 17201.45119100 .00002247 00000-0 10572-3 0 9994 2 42781 097.4482 260.8915 0013794 150.0795 210.1232 15.20524011004073 Object T 1 42782U 17036T 17201.58230085 .00002216 00000-0 10421-3 0 9994 2 42782 097.4483 261.0231 0013659 149.4660 210.7374 15.20552509004090 Object U 1 42783U 17036U 17201.45005960 .00001368 00000-0 65537-4 0 9999 2 42783 097.4480 260.8933 0013565 151.6243 208.5734 15.20558167004082 Pegasus 1 42784U 17036V 17201.58119388 .00001552 00000-0 73866-4 0 9993 2 42784 097.4481 261.0245 0013501 151.3275 208.8705 15.20590560004102 Object W 1 42785U 17036W 17201.58098901 .00001355 00000-0 64901-4 0 9992 2 42785 097.4482 261.0250 0013435 151.2247 208.9732 15.20597159004173 Object X 1 42786U 17036X 17201.44852305 .00001235 00000-0 59328-4 0 9998 2 42786 097.4481 260.8957 0013233 151.9479 208.2472 15.20643880004159 NUDATSat 1 42787U 17036Y 17201.57946880 .00001974 00000-0 92771-4 0 9994 2 42787 097.4482 261.0262 0013241 151.4939 208.7023 15.20706474003940 SUCHAI 1 1 42788U 17036Z 17201.57963734 .00001606 00000-0 76107-4 0 9999 2 42788 097.4481 261.0259 0013218 151.3431 208.8533 15.20684058004172 Object AA 1 42789U 17036AA 17201.51306075 .00001526 00000-0 72410-4 0 9997 2 42789 097.4481 260.9616 0013022 151.4026 208.7926 15.20724919004088 VZLUSAT 1 1 42790U 17036AB 17201.44603383 .00001768 00000-0 83225-4 0 9997 2 42790 097.4478 260.8970 0012756 151.9255 208.2671 15.20799720004073 Object AC 1 42791U 17036AC 17201.51113497 .00001635 00000-0 77133-4 0 9992 2 42791 097.4479 260.9640 0012537 152.1432 208.0477 15.20828464004077 Robusta 1B 1 42792U 17036AD 17201.51089550 .00001759 00000-0 82718-4 0 9997 2 42792 097.4477 260.9633 0012496 152.5093 207.6806 15.20845629004094 Object AE 1 42793U 17036AE 17201.50714640 .00001096 00000-0 52430-4 0 9994 2 42793 097.4476 260.9681 0011528 152.6879 207.4965 15.21041677004169 D-SAT 1 42794U 17036AF 17201.50577536 .00001081 00000-0 51684-4 0 9990 2 42794 097.4474 260.9689 0010749 149.5725 210.6136 15.21114495004081 Object AG 1 42795U 17036AG 17201.50535529 .00002292 00000-0 10591-3 0 9993 2 42795 097.4473 260.9679 0010762 149.4778 210.7086 15.21155644004088 Object AH 1 42796U 17036AH 17201.13074982 .00016553 00000-0 12232-3 0 9993 2 42796 094.6132 253.0056 0026597 203.7025 156.3022 15.72460293004062 Object U 1 42820U 98067MU 17201.46606857 .00007130 00000-0 11071-3 0 9993 2 42820 051.6388 232.3616 0004175 016.1620 343.9503 15.55152209002054 Object V 1 42821U 98067MV 17201.46636042 .00006916 00000-0 10775-3 0 9994 2 42821 051.6387 232.3639 0004154 018.3148 341.7992 15.55112867002037 Object W 1 42822U 98067MW 17201.53086575 .00007155 00000-0 11133-3 0 9998 2 42822 051.6388 232.0445 0004238 020.6820 339.4342 15.55087302002046 Object X 1 42823U 98067MX 17201.40274452 .00007200 00000-0 11212-3 0 9997 2 42823 051.6391 232.6898 0007926 031.9556 328.1914 15.55040400002012 Object Y 1 42824U 98067MY 17201.40317390 .00007102 00000-0 11091-3 0 9993 2 42824 051.6392 232.6925 0007804 032.8056 327.3418 15.54987360002020 /EX